Vertical_Velocity
-4 -4 -3 -3 -4 -3 -1 -5 -3 -0 -2 -3 -2 -5 -3 -3 -4 2 0 -0 2 -0 -0 2 2 0 -2 1 10 -3 2 8 0 2 -3 3 -1 1 3 3 -9 -2 11 5 9 -11 6
-3 -4 -2 -3 -4 -2 -2 -2 -2 -2 -3 -1 -3 -6 -3 -5 -9 -0 -3 -1 -1 -1 -1 0 1 4 5 9 -12 -8 3 7 3 7 2 -2 4 9 5 4 -6 18 -1 13 -13 0 -2
-4 -2 -3 -3 -4 -2 -0 -5 -1 -5 -2 -7 -5 -7 -3 -3 -3 -5 -3 1 -0 1 -0 -1 1 3 3 3 2 -1 -1 3 5 5 0 3 1 -3 6 1 1 3 -1 -0 -4 2 4
-3 -1 -6 -0 -6 -3 -3 -6 -3 -5 -1 -3 -3 -2 -3 -0 -1 -2 -1 -1 -2 -2 -0 -1 -0 5 -5 -1 5 -0 -6 8 5 5 8 9 -4 2 1 -1 0 -3 8 -10 -8 6 -3
-4 -3 -3 -2 -4 -0 -1 -4 -3 -2 0 -3 1 -2 -3 1 0 -1 -3 -4 -3 -1 -1 -1 -0 2 -5 -0 0 -5 -6 -1 2 3 5 -0 -3 4 -0 0 1 -2 -3 -8 -8 -6 -3
-4 -1 -3 -2 -3 -1 -0 -2 -2 2 -2 -3 -1 -1 -4 -5 -4 -5 -8 -4 -5 -5 -3 -3 -2 -3 -4 -0 -1 1 -2 -4 4 -0 4 -3 -1 0 -3 -20 -14 2 -3 -1 -3 2 1
-3 -2 -2 -3 -1 -3 -1 -3 -2 -2 -2 -4 -6 -4 -5 -9 -7 -5 -9 -9 -6 -2 0 -3 -3 -1 -1 -1 -5 2 4 1 1 1 -2 -3 -13 -14 22 5 12 6 -1 3 4 5 -7
-3 -1 -2 -0 -0 -0 -0 -2 2 -0 -1 -2 0 -2 -8 -4 -6 -2 -5 -2 5 3 8 4 -3 -1 -4 -5 -2 -2 3 -0 -0 1 -8 -16 5 6 1 3 3 -5 -2 1 1 -8 -11
-0 -3 -1 0 -3 -0 -3 -1 -1 -0 -4 3 -3 2 -8 -8 -2 -4 -3 -4 3 -1 -13 0 -6 -12 -14 -5 -4 -1 6 6 -0 4 8 -3 4 -1 -4 1 -6 -3 3 -4 -4 -0 -5
-2 -2 -1 -2 -4 -1 -2 -2 -1 -2 2 0 -5 -7 -1 -10 -5 2 -3 -3 -9 -1 2 20 -1 4 7 12 73 -4 -2 -1 -2 4 4 21 5 3 5 3 -4 -2 5 -2 -3 -0 0
-3 -0 -0 -1 -3 0 -0 -0 -1 -4 0 -1 1 -2 -9 1 1 -0 2 1 1 -3 -10 12 -10 1 -1 -0 -6 1 3 1 0 -1 -11 -6 -5 -3 -2 5 1 21 -16 -5 -8 -1 2
-3 -1 -3 0 0 -2 -1 -1 -3 -3 -1 1 -4 -4 -7 -4 -6 0 -2 -2 1 -4 -14 3 -5 1 2 5 1 -0 28 4 2 9 -1 4 3 -3 5 -4 7 -0 1 -2 -3 1 -16
-3 -3 -2 -0 0 -2 -1 0 -3 -4 -1 -0 4 -1 -4 -3 -4 -4 0 -2 4 -10 -2 -3 -2 11 3 -4 6 0 2 1 -1 -3 -3 -4 0 2 2 -2 1 1 2 -2 -2 -10 -17
-4 -1 -1 -1 0 -3 -0 -1 -1 -1 -2 0 0 3 -3 1 2 0 -3 -3 -7 1 1 -3 -3 1 -2 5 -6 3 4 2 -2 -4 -1 4 -3 6 2 -1 -2 3 -4 1 -2 -4 11
-2 -5 -2 -1 -1 -1 -2 1 -1 -2 -1 -2 2 -2 -2 -5 -1 0 4 1 -1 -6 3 3 6 -1 -5 -2 -1 -0 1 -4 -3 -1 -0 -6 -6 -2 2 -4 6 12 -2 2 -2 -2 -1
-3 -2 0 -1 -1 -0 -3 -2 2 1 -5 -3 -2 -2 -2 -1 1 -5 -8 2 -4 -0 -5 -1 2 1 -0 -6 -2 -2 1 -2 -2 1 1 0 1 1 1 -1 -3 6 0 3 0 -2 -5
-3 -1 -1 -3 -3 -2 -1 2 -2 -1 -1 -4 2 2 -1 -2 2 -4 -5 1 1 3 -4 -2 1 1 -2 1 3 2 -4 0 3 -2 -2 -3 -1 -3 -2 -6 0 -1 -6 -0 3 -2 -2
-3 -3 -1 -3 -1 1 -2 -1 2 -2 -6 -1 -3 1 2 3 1 6 0 6 -1 -6 -1 -4 -3 1 -1 -1 -1 0 -1 -2 -0 -1 0 2 -1 -5 -6 -3 -2 -4 -2 -4 -1 -1 -2
-3 -4 -2 -3 -1 -3 -2 -1 1 -0 5 -1 -5 -4 -2 -1 -3 -5 3 2 3 5 -5 -2 -1 -1 0 1 0 -1 -0 -1 -1 -2 -4 -3 -3 -1 -2 -2 -0 1 1 -0 -1 -0 -1
-3 -4 -2 -1 -4 -2 -3 -1 -0 1 0 -3 2 -4 1 -1 3 9 -5 -0 -2 3 5 -2 -1 -2 1 2 1 0 -2 -2 -3 -1 -0 -2 -1 1 -0 -2 -2 -0 -1 -2 -1 3 7
-3 -3 -2 -0 -5 -4 -3 -4 -3 -2 -3 3 -4 -2 -4 -4 -1 -4 7 -7 -2 -4 2 2 1 -1 -1 -1 3 2 1 1 -2 -3 -1 -2 -2 -1 1 0 -1 1 -0 1 2 -3 -5
-4 -3 -3 -4 -2 -4 -4 2 -7 -5 0 0 -1 -5 -6 -3 -2 1 5 12 7 -1 -2 1 -1 2 -2 -0 -1 2 -1 -3 1 -1 -2 -3 0 -1 1 -0 -0 1 -0 -1 -1 -3 -0
-3 -4 -6 -3 -2 -5 -2 -4 -2 -2 -6 -4 -1 5 1 -2 3 3 -4 -10 6 9 2 1 0 1 1 1 -1 2 2 4 3 -2 0 -1 -3 -2 -2 -4 -1 1 1 1 -3 -2 -3
-2 -3 -6 -3 -3 -4 -3 -4 -6 -3 0 2 2 -0 -2 -2 -4 5 -10 -1 -4 0 8 4 3 2 -0 1 0 1 0 -0 1 2 -0 1 -1 1 1 0 -6 -6 -2 -0 2 -1 -0
-1 -4 -6 -4 -4 -4 -2 -3 -3 -4 -4 -3 -3 -2 -1 -8 -1 4 -3 -4 -0 -1 4 -4 7 -0 1 -0 -0 1 2 1 1 1 1 1 1 0 -2 1 -2 1 -1 -4 -2 -2 0
2 -2 -6 -6 -5 -3 -2 -4 -1 -3 -2 -1 -8 -1 4 -4 -10 -2 3 -10 4 -0 -2 3 2 5 -0 0 -0 0 0 2 -0 1 2 2 1 1 -0 -1 -3 2 -0 -1 3 0 1
1 -2 -3 -8 -3 -3 -1 -6 -2 -4 -2 -3 -0 -7 2 -3 -6 -1 -1 -1 -9 -1 3 -6 2 -0 2 2 -3 1 1 1 -0 0 1 1 1 1 -1 -1 1 -1 -2 1 -1 1 2
0 -2 -4 -4 -4 -3 -1 -2 -3 -2 -1 2 -13 -1 0 -3 2 2 -6 -4 -3 -3 -1 7 -3 -3 -3 -1 -2 0 2 1 -0 -0 1 -0 -2 0 -0 1 -3 2 1 0 -2 -2 -4
-2 -4 -5 -4 -6 -2 -2 -6 -2 -4 -2 0 2 -1 -1 1 14 -11 13 13 2 -4 -4 -1 7 -1 15 -2 3 -2 2 2 1 -1 0 1 -1 0 -1 1 -0 2 -2 1 0 -1 -1
Height
5800 5789 5776 5762 5749 5735 5720 5704 5691 5679 5664 5652 5639 5622 5602 5583 5568 5559 5556 5553 5552 5551 5549 5548 5550 5554 5567 5581 5590 5598 5613 5625 5642 5653 5663 5674 5684 5691 5699 5709 5717 5724 5729 5734 5740 5747 5756
5797 5786 5773 5761 5747 5732 5717 5701 5689 5676 5662 5649 5635 5617 5598 5580 5565 5557 5555 5553 5551 5550 5548 5547 5548 5552 5559 5568 5578 5591 5604 5618 5633 5646 5657 5667 5679 5686 5693 5702 5711 5717 5721 5726 5732 5745 5751
5794 5784 5772 5759 5745 5729 5713 5700 5687 5675 5661 5648 5634 5615 5596 5579 5565 5556 5553 5551 5550 5549 5548 5546 5546 5550 5552 5560 5572 5585 5597 5611 5627 5640 5652 5661 5671 5680 5688 5696 5705 5710 5715 5720 5731 5741 5749
5792 5781 5769 5756 5742 5728 5712 5700 5686 5675 5661 5649 5635 5617 5598 5581 5567 5556 5550 5549 5548 5546 5545 5543 5545 5548 5549 5556 5566 5579 5590 5607 5621 5636 5648 5656 5664 5675 5683 5693 5700 5706 5711 5715 5726 5737 5743
5790 5778 5767 5755 5740 5725 5711 5698 5687 5675 5663 5651 5637 5621 5603 5586 5570 5556 5549 5548 5547 5545 5543 5542 5544 5547 5551 5556 5561 5570 5586 5601 5616 5631 5643 5652 5662 5671 5680 5687 5695 5699 5706 5715 5722 5732 5741
5788 5777 5766 5753 5740 5725 5712 5698 5686 5675 5665 5654 5641 5625 5611 5595 5580 5567 5556 5551 5550 5547 5546 5545 5546 5550 5552 5556 5560 5570 5583 5598 5614 5629 5642 5651 5658 5667 5675 5685 5695 5701 5707 5714 5720 5730 5736
5786 5775 5764 5752 5740 5726 5711 5699 5688 5676 5667 5657 5646 5632 5620 5610 5598 5584 5574 5565 5560 5554 5549 5549 5550 5552 5553 5556 5560 5568 5581 5596 5612 5625 5639 5648 5657 5669 5680 5685 5691 5696 5701 5707 5714 5721 5727
5783 5773 5763 5752 5740 5726 5713 5700 5689 5679 5670 5660 5651 5641 5629 5621 5610 5599 5588 5579 5570 5563 5558 5555 5555 5554 5555 5557 5561 5570 5583 5598 5613 5629 5638 5649 5658 5667 5675 5681 5687 5692 5699 5705 5708 5712 5719
5781 5771 5762 5751 5740 5727 5714 5700 5691 5682 5673 5665 5656 5647 5639 5629 5622 5614 5603 5593 5586 5580 5572 5570 5568 5565 5563 5566 5573 5581 5590 5601 5614 5626 5640 5647 5659 5664 5672 5678 5684 5691 5697 5700 5705 5710 5714
5779 5770 5760 5749 5739 5727 5715 5704 5695 5686 5676 5669 5662 5653 5646 5638 5633 5627 5618 5608 5601 5593 5588 5586 5585 5584 5582 5580 5585 5593 5600 5611 5621 5632 5642 5647 5656 5663 5670 5677 5682 5690 5693 5694 5700 5706 5711
5776 5767 5758 5748 5740 5728 5718 5706 5696 5688 5679 5673 5666 5660 5653 5646 5640 5636 5630 5622 5618 5612 5603 5603 5601 5599 5595 5596 5598 5602 5611 5620 5627 5635 5643 5650 5656 5663 5669 5674 5682 5687 5687 5691 5697 5699 5702
5773 5765 5756 5747 5739 5729 5718 5707 5698 5689 5681 5676 5671 5664 5659 5653 5646 5642 5636 5632 5630 5626 5616 5616 5612 5610 5611 5611 5611 5612 5616 5624 5632 5638 5644 5650 5657 5661 5666 5671 5677 5680 5685 5688 5692 5692 5694
5771 5762 5755 5746 5738 5727 5718 5709 5699 5690 5682 5675 5673 5668 5662 5658 5653 5649 5643 5639 5636 5632 5632 5628 5625 5622 5621 5621 5622 5624 5626 5632 5638 5641 5645 5647 5653 5660 5664 5669 5674 5678 5682 5684 5686 5687 5692
5767 5760 5753 5744 5736 5727 5717 5709 5700 5692 5683 5676 5672 5670 5665 5661 5655 5651 5649 5645 5640 5636 5636 5635 5634 5632 5630 5630 5630 5631 5634 5637 5639 5642 5646 5649 5654 5658 5663 5668 5672 5674 5677 5681 5682 5683 5689
5763 5758 5750 5743 5734 5726 5717 5707 5699 5692 5685 5679 5672 5670 5666 5663 5661 5656 5653 5649 5644 5641 5639 5639 5639 5638 5638 5636 5636 5636 5638 5640 5642 5644 5647 5650 5654 5658 5661 5663 5668 5667 5674 5679 5679 5679 5683
5758 5754 5747 5741 5733 5724 5716 5707 5699 5692 5686 5680 5673 5668 5665 5662 5660 5656 5653 5651 5648 5644 5641 5641 5642 5641 5641 5641 5641 5642 5642 5642 5642 5644 5647 5650 5653 5655 5658 5662 5666 5669 5672 5674 5674 5675 5677
5754 5749 5743 5738 5731 5723 5714 5705 5698 5690 5685 5678 5671 5666 5663 5660 5659 5656 5655 5652 5649 5646 5644 5642 5642 5642 5642 5643 5643 5644 5645 5644 5643 5644 5647 5650 5652 5653 5655 5660 5664 5666 5668 5671 5671 5672 5674
5748 5744 5739 5735 5728 5720 5712 5703 5695 5688 5681 5677 5672 5667 5662 5658 5657 5654 5653 5650 5649 5646 5645 5643 5641 5642 5643 5643 5643 5643 5644 5645 5646 5647 5648 5649 5650 5651 5653 5656 5659 5662 5664 5666 5667 5670 5671
5742 5739 5734 5729 5724 5717 5710 5701 5693 5687 5679 5673 5668 5663 5659 5656 5654 5653 5652 5650 5647 5645 5643 5642 5641 5641 5641 5642 5642 5642 5643 5644 5645 5646 5647 5648 5650 5651 5653 5656 5656 5657 5660 5662 5663 5666 5667
5735 5732 5728 5723 5719 5714 5706 5699 5690 5683 5676 5670 5664 5659 5654 5652 5649 5646 5644 5644 5644 5643 5642 5640 5639 5638 5638 5639 5640 5640 5641 5641 5642 5643 5644 5646 5647 5649 5650 5651 5652 5653 5655 5657 5659 5661 5664
5728 5725 5721 5716 5712 5708 5701 5694 5686 5678 5670 5665 5659 5654 5648 5646 5644 5641 5639 5638 5638 5638 5638 5637 5636 5635 5635 5635 5636 5637 5637 5638 5639 5640 5640 5642 5643 5644 5645 5646 5648 5649 5650 5652 5655 5658 5658
5720 5717 5714 5710 5706 5701 5694 5688 5680 5674 5668 5660 5654 5649 5645 5639 5635 5633 5630 5631 5630 5632 5632 5632 5632 5631 5630 5631 5632 5633 5634 5634 5635 5636 5636 5637 5639 5640 5641 5642 5643 5644 5646 5648 5650 5651 5653
5711 5709 5706 5703 5699 5694 5688 5682 5676 5668 5661 5655 5647 5643 5637 5634 5627 5624 5622 5622 5624 5624 5625 5625 5626 5627 5626 5626 5626 5627 5628 5630 5631 5631 5632 5633 5634 5635 5636 5637 5638 5641 5641 5642 5645 5647 5648
5703 5701 5698 5696 5692 5688 5682 5676 5669 5663 5656 5648 5641 5637 5631 5627 5621 5616 5616 5616 5616 5614 5617 5619 5620 5621 5621 5621 5621 5622 5623 5623 5625 5625 5626 5627 5628 5630 5631 5632 5634 5636 5637 5638 5639 5640 5643
5694 5692 5690 5688 5685 5681 5673 5668 5662 5654 5648 5641 5635 5628 5623 5618 5614 5608 5605 5607 5607 5607 5608 5608 5612 5614 5615 5616 5617 5617 5618 5619 5619 5620 5620 5622 5624 5625 5627 5628 5630 5632 5632 5634 5635 5636 5638
5686 5684 5682 5681 5676 5671 5666 5661 5654 5648 5640 5634 5627 5622 5616 5609 5605 5600 5599 5599 5597 5597 5600 5600 5602 5605 5607 5609 5610 5612 5613 5614 5614 5615 5616 5617 5619 5621 5623 5624 5625 5627 5628 5630 5632 5634 5635
5676 5675 5673 5671 5666 5662 5657 5652 5646 5639 5632 5627 5620 5612 5606 5602 5596 5589 5586 5587 5586 5586 5589 5591 5591 5594 5597 5600 5602 5605 5608 5609 5610 5610 5611 5612 5614 5616 5617 5619 5621 5622 5623 5626 5629 5634 5633
5665 5664 5663 5661 5658 5653 5649 5644 5637 5630 5624 5620 5610 5605 5596 5593 5588 5578 5574 5575 5575 5574 5576 5581 5583 5584 5588 5590 5594 5597 5599 5602 5604 5605 5607 5608 5610 5611 5613 5615 5618 5619 5620 5623 5624 5625 5627
5654 5653 5652 5651 5647 5643 5640 5636 5628 5621 5615 5609 5603 5595 5587 5582 5580 5568 5561 5561 5561 5561 5564 5567 5573 5577 5580 5579 5583 5587 5592 5594 5597 5601 5602 5603 5606 5608 5610 5611 5613 5614 5616 5618 5620 5622 5624